TimeEDT,TemperatureF,Dew PointF,Humidity,Sea Level PressureIn,VisibilityMPH,Wind Direction,Wind SpeedMPH,Gust SpeedMPH,PrecipitationIn,Events,Conditions,WindDirDegrees,DateUTC
12:15 AM,68.0,64.4,88,30.09,9.0,Calm,Calm,-,N/A,,Clear,0,2013-09-07 04:15:00
12:35 AM,66.2,64.4,94,30.09,7.0,Calm,Calm,-,N/A,,Clear,0,2013-09-07 04:35:00
12:55 AM,68.0,64.4,88,30.09,8.0,Calm,Calm,-,N/A,,Clear,0,2013-09-07 04:55:00
1:15 AM,68.0,64.4,88,30.09,5.0,Calm,Calm,-,N/A,,Clear,0,2013-09-07 05:15:00
1:35 AM,66.2,64.4,94,30.09,3.0,Calm,Calm,-,N/A,,Clear,0,2013-09-07 05:35:00
1:55 AM,66.2,64.4,94,30.09,5.0,Calm,Calm,-,N/A,,Clear,0,2013-09-07 05:55:00
2:15 AM,66.2,64.4,94,30.09,5.0,Calm,Calm,-,N/A,,Clear,0,2013-09-07 06:15:00
2:35 AM,64.4,62.6,94,30.08,4.0,SSE,4.6,-,N/A,,Clear,150,2013-09-07 06:35:00
2:55 AM,64.4,62.6,94,30.08,4.0,SSE,4.6,-,N/A,,Clear,150,2013-09-07 06:55:00
3:15 AM,66.2,64.4,94,30.08,6.0,Calm,Calm,-,N/A,,Clear,0,2013-09-07 07:15:00
3:35 AM,66.2,64.4,94,30.08,5.0,Calm,Calm,-,N/A,,Clear,0,2013-09-07 07:35:00
3:55 AM,64.4,62.6,94,30.08,4.0,ESE,3.5,-,N/A,,Clear,120,2013-09-07 07:55:00
4:15 AM,64.4,62.6,94,30.09,4.0,East,3.5,-,N/A,,Clear,100,2013-09-07 08:15:00
4:35 AM,64.4,62.6,94,30.08,5.0,Calm,Calm,-,N/A,,Clear,0,2013-09-07 08:35:00
4:55 AM,64.4,62.6,94,30.08,5.0,East,3.5,-,N/A,,Clear,100,2013-09-07 08:55:00
5:15 AM,64.4,62.6,94,30.08,6.0,SE,3.5,-,N/A,,Clear,130,2013-09-07 09:15:00
5:35 AM,64.4,62.6,94,30.08,5.0,SE,4.6,-,N/A,,Clear,140,2013-09-07 09:35:00
5:55 AM,64.4,62.6,94,30.08,5.0,SE,4.6,-,N/A,,Clear,130,2013-09-07 09:55:00
6:15 AM,64.4,62.6,94,30.09,3.0,ENE,4.6,-,N/A,,Clear,60,2013-09-07 10:15:00
6:35 AM,62.6,60.8,94,30.10,3.0,ENE,3.5,-,N/A,,Clear,70,2013-09-07 10:35:00
6:55 AM,62.6,60.8,94,30.10,5.0,Calm,Calm,-,N/A,,Clear,0,2013-09-07 10:55:00
7:15 AM,62.6,60.8,94,30.09,6.0,SSW,4.6,-,N/A,,Clear,210,2013-09-07 11:15:00
7:35 AM,62.6,59.0,88,30.10,2.0,Calm,Calm,-,N/A,,Clear,0,2013-09-07 11:35:00
7:55 AM,62.6,60.8,94,30.10,5.0,Calm,Calm,-,N/A,,Clear,0,2013-09-07 11:55:00
8:15 AM,64.4,62.6,94,30.10,5.0,Calm,Calm,-,N/A,,Clear,0,2013-09-07 12:15:00
8:35 AM,66.2,64.4,94,30.10,7.0,Calm,Calm,-,N/A,,Clear,0,2013-09-07 12:35:00
8:55 AM,68.0,64.4,88,30.10,9.0,Calm,Calm,-,N/A,,Clear,0,2013-09-07 12:55:00
9:15 AM,69.8,66.2,88,30.09,10.0,SE,3.5,-,N/A,,Clear,140,2013-09-07 13:15:00
9:35 AM,71.6,66.2,83,30.10,10.0,South,3.5,-,N/A,,Clear,190,2013-09-07 13:35:00
9:55 AM,73.4,66.2,78,30.09,10.0,South,6.9,-,N/A,,Clear,190,2013-09-07 13:55:00
10:15 AM,75.2,66.2,73,30.10,10.0,SW,8.1,-,N/A,,Clear,220,2013-09-07 14:15:00
10:35 AM,75.2,66.2,73,30.10,10.0,SSW,9.2,-,N/A,,Clear,210,2013-09-07 14:35:00
10:55 AM,77.0,66.2,69,30.10,10.0,SW,8.1,-,N/A,,Clear,220,2013-09-07 14:55:00
11:15 AM,78.8,66.2,65,30.09,10.0,SSW,9.2,-,N/A,,Clear,200,2013-09-07 15:15:00
11:35 AM,80.6,66.2,61,30.09,10.0,SSW,9.2,-,N/A,,Clear,200,2013-09-07 15:35:00
11:55 AM,80.6,68.0,65,30.09,10.0,SSW,10.4,-,N/A,,Clear,210,2013-09-07 15:55:00
12:15 PM,80.6,68.0,65,30.09,10.0,SW,6.9,-,N/A,,Clear,220,2013-09-07 16:15:00
12:35 PM,82.4,68.0,62,30.09,10.0,West,5.8,-,N/A,,Clear,260,2013-09-07 16:35:00
12:55 PM,82.4,68.0,62,30.08,10.0,SW,8.1,-,N/A,,Partly Cloudy,220,2013-09-07 16:55:00
1:15 PM,82.4,68.0,62,30.08,10.0,West,9.2,-,N/A,,Scattered Clouds,270,2013-09-07 17:15:00
1:35 PM,82.4,68.0,62,30.07,10.0,West,6.9,-,N/A,,Mostly Cloudy,270,2013-09-07 17:35:00
1:55 PM,82.4,68.0,62,30.06,10.0,West,11.5,-,N/A,,Mostly Cloudy,260,2013-09-07 17:55:00
2:15 PM,84.2,68.0,58,30.06,10.0,West,8.1,-,N/A,,Scattered Clouds,260,2013-09-07 18:15:00
2:35 PM,84.2,68.0,58,30.05,10.0,WSW,6.9,-,N/A,,Clear,250,2013-09-07 18:35:00
2:55 PM,84.2,66.2,55,30.03,10.0,SSW,5.8,-,N/A,,Partly Cloudy,210,2013-09-07 18:55:00
3:15 PM,84.2,66.2,55,30.02,10.0,WSW,10.4,-,N/A,,Clear,240,2013-09-07 19:15:00
3:35 PM,84.2,66.2,55,30.01,10.0,SW,5.8,-,N/A,,Clear,230,2013-09-07 19:35:00
3:55 PM,84.2,66.2,55,30.00,10.0,SW,9.2,-,N/A,,Clear,230,2013-09-07 19:55:00
4:15 PM,84.2,66.2,55,30.00,10.0,South,9.2,-,N/A,,Partly Cloudy,190,2013-09-07 20:15:00
4:35 PM,84.2,66.2,55,29.99,10.0,SW,10.4,-,N/A,,Partly Cloudy,220,2013-09-07 20:35:00
4:55 PM,84.2,66.2,55,29.99,10.0,SW,8.1,-,N/A,,Clear,230,2013-09-07 20:55:00
5:15 PM,84.2,66.2,55,29.99,10.0,WSW,9.2,-,N/A,,Clear,250,2013-09-07 21:15:00
5:35 PM,84.2,66.2,55,29.98,10.0,SW,10.4,-,N/A,,Clear,230,2013-09-07 21:35:00
5:55 PM,84.2,66.2,55,29.99,10.0,WSW,9.2,-,N/A,,Clear,240,2013-09-07 21:55:00
6:15 PM,84.2,66.2,55,29.99,10.0,WSW,6.9,-,N/A,,Clear,250,2013-09-07 22:15:00
6:35 PM,82.4,66.2,58,29.99,10.0,SW,8.1,-,N/A,,Clear,220,2013-09-07 22:35:00
6:55 PM,82.4,66.2,58,29.99,10.0,SW,6.9,-,N/A,,Clear,220,2013-09-07 22:55:00
7:15 PM,82.4,66.2,58,29.99,10.0,SW,4.6,-,N/A,,Clear,230,2013-09-07 23:15:00
7:35 PM,80.6,66.2,61,29.98,10.0,SSW,3.5,-,N/A,,Clear,200,2013-09-07 23:35:00
7:55 PM,80.6,66.2,61,29.99,10.0,Calm,Calm,-,N/A,,Clear,0,2013-09-07 23:55:00
8:15 PM,78.8,66.2,65,29.99,10.0,Calm,Calm,-,N/A,,Clear,0,2013-09-08 00:15:00
8:35 PM,75.2,66.2,73,29.99,10.0,SSE,3.5,-,N/A,,Clear,150,2013-09-08 00:35:00
8:55 PM,73.4,66.2,78,29.99,8.0,SSE,3.5,-,N/A,,Clear,150,2013-09-08 00:55:00
9:15 PM,73.4,66.2,78,29.99,10.0,Calm,Calm,-,N/A,,Clear,0,2013-09-08 01:15:00
9:35 PM,73.4,66.2,78,30.00,10.0,Calm,Calm,-,N/A,,Clear,0,2013-09-08 01:35:00
9:55 PM,71.6,66.2,83,30.00,10.0,SSE,3.5,-,N/A,,Clear,160,2013-09-08 01:55:00
10:15 PM,71.6,66.2,83,30.00,10.0,Calm,Calm,-,N/A,,Clear,0,2013-09-08 02:15:00
10:35 PM,71.6,66.2,83,30.00,10.0,Calm,Calm,-,N/A,,Clear,0,2013-09-08 02:35:00
10:55 PM,71.6,66.2,83,30.00,10.0,South,4.6,-,N/A,,Clear,190,2013-09-08 02:55:00
11:15 PM,71.6,66.2,83,29.99,10.0,SSW,4.6,-,N/A,,Clear,200,2013-09-08 03:15:00
11:35 PM,73.4,66.2,78,29.99,7.0,South,4.6,-,N/A,,Clear,190,2013-09-08 03:35:00
11:55 PM,73.4,66.2,78,29.99,10.0,SSW,4.6,-,N/A,,Clear,200,2013-09-08 03:55:00